PD1VW-10 Weather Reports


Display with metric or nautical units.
time (UTC)temp
F
wind
direction
speed
MPH
gust
MPH
rain 1hr
in
rain 24hr
in
rain mn
in
humidity
%
barometer
mb
20260901003027 62 242 3.0 4.0 0.00 0.48 0.00 88 1017.0
20260901002024 62 281 3.0 4.0 0.00 0.48 0.00 88 1016.9
20260901001021 63 252 3.0 4.0 0.00 0.48 0.00 88 1016.9
20260901000019 63 265 2.0 3.0 0.00 0.48 0.00 89 1016.9
20260831235016 63 223 3.0 3.0 0.00 0.48 0.00 90 1017.0
20260831234043 62 247 3.0 3.0 0.00 0.48 0.00 91 1016.8
20260831233040 62 231 3.0 3.0 0.00 0.48 0.00 91 1016.8
20260831232038 62 214 2.0 3.0 0.00 0.48 0.00 91 1016.7
20260831231035 62 236 2.0 3.0 0.00 0.48 0.00 91 1016.6
20260831230052 62 224 3.0 4.0 0.00 0.48 0.00 92 1016.6
20260831225030 61 204 2.0 2.0 0.00 0.48 0.00 92 1016.5
20260831224027 61 198 1.0 2.0 0.00 0.48 0.00 92 1016.5
20260831223025 61 240 3.0 4.0 0.00 0.48 0.00 92 1016.7
20260831222022 61 195 3.0 3.0 0.00 0.49 0.00 92 1016.7
20260831221019 61 210 3.0 4.0 0.00 0.49 0.00 92 1016.5
20260831220017 60 194 1.0 2.0 0.00 0.49 0.49 92 1016.6
20260831215045 60 177 1.0 2.0 0.00 0.51 0.49 92 1016.5
20260831214042 60 175 2.0 2.0 0.00 0.62 0.49 92 1016.7
20260831213040 60 191 2.0 2.0 0.00 0.64 0.49 91 1016.5
20260831212037 61 193 2.0 2.0 0.00 0.64 0.49 90 1016.5
20260831211055 61 173 1.0 2.0 0.00 0.64 0.49 90 1016.3
20260831210052 62 177 1.0 2.0 0.00 0.64 0.49 89 1016.2
20260831205029 62 216 3.0 3.0 0.00 0.64 0.49 88 1016.0
20260831204027 62 222 3.0 4.0 0.00 0.64 0.49 88 1016.0
20260831203024 63 238 3.0 4.0 0.00 0.64 0.49 88 1015.7
20260831202022 63 187 1.0 2.0 0.00 0.64 0.49 88 1015.8
20260831201019 63 230 3.0 3.0 0.00 0.64 0.49 88 1015.7
20260831200017 63 196 2.0 3.0 0.00 0.64 0.49 88 1015.6
20260831195044 63 189 1.0 1.0 0.00 0.64 0.49 88 1015.6
20260831194042 63 273 3.0 4.0 0.00 0.64 0.49 88 1015.5
20260831193039 63 252 4.0 6.0 0.00 0.64 0.49 87 1015.5
20260831192036 63 236 2.0 3.0 0.00 0.64 0.49 86 1015.3
20260831191054 64 260 5.0 8.0 0.00 0.64 0.49 85 1015.3
20260831190031 64 61 4.0 7.0 0.00 0.64 0.49 85 1014.9
20260831185049 64 209 4.0 6.0 0.00 0.64 0.49 85 1014.7
20260831184025 64 273 5.0 8.0 0.00 0.64 0.49 85 1014.5
20260831183022 64 203 7.0 11.0 0.00 0.64 0.49 85 1014.3
20260831182020 64 0.0 0.0 0.00 0.64 0.49 84 1014.2
20260831181016 64 272 5.0 7.0 0.00 0.64 0.49 84 1013.9
20260831175039 64 254 6.0 8.0 0.00 0.64 0.49 83 1013.8
20260831174037 64 274 4.0 6.0 0.00 0.64 0.49 83 1013.6
20260831173034 64 314 8.0 10.0 0.01 0.64 0.49 84 1013.5
20260831172031 64 281 6.0 7.0 0.01 0.64 0.49 86 1013.5
20260831171029 64 314 6.0 8.0 0.02 0.64 0.49 87 1013.6
20260831170027 63 259 8.0 11.0 0.09 0.64 0.49 88 1013.1
20260831165044 63 267 7.0 14.0 0.09 0.64 0.49 91 1012.9
20260831164022 62 321 5.0 8.0 0.09 0.64 0.49 93 1013.0
20260831163039 62 250 4.0 8.0 0.08 0.63 0.48 92 1012.8
20260831162037 62 218 6.0 8.0 0.09 0.63 0.48 92 1012.8
20260831161044 63 256 10.0 15.0 0.08 0.62 0.47 88 1012.7
20260831160042 64 277 8.0 10.0 0.01 0.55 0.40 84 1012.2
20260831155059 64 245 7.0 10.0 0.01 0.55 0.40 85 1012.2
20260831154056 64 254 6.0 10.0 0.02 0.55 0.40 85 1012.2
20260831153034 64 239 5.0 7.0 0.03 0.55 0.40 87 1012.1
20260831152031 64 232 7.0 11.0 0.02 0.54 0.39 86 1011.9
20260831151028 64 276 6.0 13.0 0.02 0.54 0.39 86 1011.8
20260831150026 63 270 8.0 11.0 0.02 0.54 0.39 88 1011.7
20260831145024 63 273 5.0 10.0 0.03 0.54 0.39 89 1011.7
20260831144041 63 276 9.0 16.0 0.02 0.53 0.38 86 1011.7
20260831143018 64 285 6.0 9.0 0.02 0.52 0.37 86 1011.6
20260831142036 63 222 6.0 9.0 0.07 0.52 0.37 87 1011.2
20260831141043 62 279 7.0 11.0 0.07 0.52 0.37 91 1011.0
20260831140040 62 222 4.0 6.0 0.07 0.52 0.37 92 1011.0
20260831135037 61 289 3.0 9.0 0.06 0.51 0.36 92 1010.9
20260831134035 61 271 7.0 11.0 0.06 0.51 0.36 91 1010.9
20260831133032 63 270 9.0 13.0 0.05 0.50 0.35 86 1010.6
20260831132029 64 274 8.0 14.0 0.00 0.45 0.30 80 1010.4
20260831131027 64 255 2.0 6.0 0.00 0.45 0.30 79 1010.6
20260831130024 64 276 6.0 10.0 0.00 0.45 0.30 77 1010.6
20260831125021 65 271 6.0 11.0 0.00 0.45 0.30 77 1010.2
20260831124018 65 248 9.0 13.0 0.00 0.45 0.30 76 1010.1
20260831123015 66 237 7.0 11.0 0.00 0.45 0.30 77 1009.9
20260831122042 65 237 11.0 15.0 0.00 0.45 0.30 75 1009.7
20260831121039 66 239 11.0 21.0 0.00 0.45 0.30 75 1009.6
20260831120036 66 240 7.0 13.0 0.00 0.45 0.30 77 1009.4
20260831115034 65 230 10.0 19.0 0.02 0.45 0.30 77 1009.3
20260831114051 65 231 10.0 15.0 0.02 0.45 0.30 78 1009.1
20260831113028 65 276 7.0 14.0 0.10 0.45 0.30 81 1009.0
20260831112025 63 278 9.0 11.0 0.10 0.45 0.30 86 1009.0
20260831111022 62 182 6.0 9.0 0.10 0.45 0.30 93 1008.7
20260831110020 61 213 5.0 8.0 0.11 0.45 0.30 93 1008.8
20260831105037 61 200 3.0 4.0 0.09 0.43 0.28 93 1008.7
20260831104045 61 267 8.0 13.0 0.10 0.43 0.28 91 1008.8
20260831103042 62 267 7.0 13.0 0.03 0.35 0.20 92 1008.4
20260831102040 60 216 6.0 8.0 0.07 0.35 0.20 94 1008.4
20260831101037 59 215 5.0 7.0 0.13 0.35 0.20 95 1008.0
20260831100034 59 195 7.0 10.0 0.12 0.34 0.19 94 1008.0
20260831095031 59 258 6.0 10.0 0.12 0.34 0.19 95 1008.2
20260831094028 59 185 4.0 7.0 0.11 0.33 0.18 94 1008.1
20260831093026 58 239 4.0 6.0 0.10 0.32 0.17 93 1008.4
20260831092023 62 242 5.0 15.0 0.06 0.28 0.13 90 1008.5
20260831091021 65 254 8.0 14.0 0.00 0.22 0.07 80 1007.9
20260831090017 66 236 8.0 16.0 0.00 0.22 0.07 80 1007.8
20260831085015 66 228 8.0 11.0 0.00 0.22 0.07 81 1007.6
20260831084042 66 217 8.0 11.0 0.00 0.22 0.07 82 1007.4
20260831083040 65 243 9.0 15.0 0.00 0.22 0.07 82 1007.5
20260831082037 65 198 7.0 11.0 0.00 0.22 0.07 84 1007.6
20260831081054 64 196 9.0 16.0 0.00 0.22 0.07 87 1008.0
20260831080032 63 128 6.0 8.0 0.00 0.22 0.07 89 1007.7
20260831075048 62 171 9.0 10.0 0.00 0.22 0.07 87 1008.0
20260831074025 61 172 6.0 8.0 0.00 0.22 0.07 87 1007.8
20260831073021 60 152 6.0 7.0 0.00 0.22 0.07 87 1007.9
20260831072018 60 169 6.0 9.0 0.02 0.22 0.07 88 1007.6
20260831071044 59 173 8.0 9.0 0.02 0.22 0.07 90 1007.8
20260831070041 58 163 5.0 7.0 0.02 0.22 0.07 93 1007.9
20260831065037 58 212 5.0 9.0 0.02 0.22 0.07 93 1008.3
20260831064034 58 205 9.0 13.0 0.02 0.22 0.07 92 1008.5
20260831063030 61 224 12.0 19.0 0.02 0.22 0.07 91 1008.4
20260831062028 63 151 10.0 13.0 0.00 0.20 0.05 91 1008.2
20260831061024 63 217 5.0 10.0 0.00 0.20 0.05 91 1007.9
20260831060021 63 223 7.0 10.0 0.00 0.20 0.05 92 1007.9
20260831055017 62 176 7.0 10.0 0.00 0.20 0.05 93 1008.0
20260831054043 62 152 6.0 11.0 0.00 0.20 0.05 94 1007.9
20260831053040 61 146 6.0 8.0 0.00 0.20 0.05 96 1007.8
20260831052037 61 158 5.0 8.0 0.00 0.20 0.05 96 1007.8
20260831051053 61 165 6.0 8.0 0.00 0.20 0.05 96 1007.8
20260831050029 60 170 8.0 10.0 0.01 0.20 0.05 96 1007.6
20260831045026 60 170 7.0 8.0 0.03 0.20 0.05 96 1007.7
20260831044022 60 155 5.0 8.0 0.04 0.20 0.05 95 1007.7
20260831043019 60 216 4.0 7.0 0.04 0.20 0.05 94 1007.8
20260831042015 60 211 5.0 9.0 0.04 0.20 0.05 94 1007.7
20260831041042 59 172 4.0 7.0 0.04 0.20 0.05 94 1007.5
20260831040058 60 239 6.0 9.0 0.03 0.19 0.04 94 1007.5
20260831035035 62 233 7.0 10.0 0.01 0.17 0.02 95 1007.9
20260831034031 62 176 10.0 14.0 0.00 0.16 0.01 95 1008.2
20260831033048 61 151 9.0 13.0 0.00 0.16 0.01 95 1008.2
20260831032025 61 178 9.0 11.0 0.00 0.16 0.01 95 1008.3
20260831031021 61 171 7.0 10.0 0.00 0.16 0.01 95 1008.2
20260831030018 61 146 9.0 13.0 0.00 0.16 0.01 95 1008.0
20260831025045 61 152 8.0 10.0 0.00 0.16 0.01 95 1008.1
20260831024041 61 160 7.0 10.0 0.00 0.16 0.01 96 1008.3
20260831023038 61 165 7.0 9.0 0.00 0.16 0.01 96 1008.3
20260831022034 61 157 8.0 11.0 0.00 0.16 0.01 97 1008.6
20260831021031 61 163 7.0 10.0 0.00 0.16 0.01 98 1008.6
20260831020027 61 181 8.0 9.0 0.00 0.16 0.01 98 1008.6
20260831015024 61 158 8.0 10.0 0.00 0.16 0.01 98 1008.9
20260831014020 61 171 6.0 8.0 0.00 0.16 0.01 98 1009.0
20260831013017 61 164 6.0 8.0 0.00 0.16 0.01 98 1008.9
20260831012044 61 171 4.0 6.0 0.00 0.16 0.01 98 1008.9
20260831011040 62 156 3.0 6.0 0.00 0.16 0.01 98 1008.9
20260831010036 62 158 5.0 7.0 0.00 0.16 0.01 98 1008.8
20260831005054 62 191 7.0 10.0 0.00 0.16 0.01 98 1008.7
20260831004030 62 158 6.0 9.0 0.00 0.16 0.01 98 1009.1